{"data":{"norad_id":55931,"epoch":"2026-05-25T03:27:04.014144Z","epoch_age_seconds":73000,"freshness":"FRESH","line1":"1 55931U 23037T   26145.14379646 -.00001535  00000+0 -12085-3 0  9990","line2":"2 55931  69.9993 111.5141 0003945 268.0876  91.9831 14.98331217174947","mean_motion":14.98331217,"eccentricity":0.0003945,"inclination_deg":69.9993,"raan_deg":111.5141,"arg_perigee_deg":268.0876,"mean_anomaly_deg":91.9831,"bstar":-0.00012085,"rev_number":17494,"period_min":96.106921064036,"perigee_km":569.31027786407,"apogee_km":574.79397708564,"semimajor_km":6950.1891274749,"source":"CELESTRAK","updated_at":"2026-05-25T13:38:17.913604Z"}}